UmKA 1 (RS40S)
1 57172U 23091G   26042.55812479  .00007502  00000-0  35900-3 0  9996
2 57172  97.5244 101.7704 0012968 191.4795 168.6145 15.19192429144921
CubeBel-2 (EU11S)
1 57175U 23091K   26042.61367546  .00014399  00000-0  56232-3 0  9999
2 57175  97.5236 104.8988 0010406 191.0110 169.0902 15.25952201145134
RS-38S
1 57189U 23091Z   26042.57522006  .00019849  00000-0  64850-3 0  9993
2 57189  97.5259 109.8489 0008602 152.2093 207.9610 15.31744750145435
SONATE-2
1 59112U 24043Q   26042.19463831  .00040169  00000-0  73324-3 0  9992
2 59112  97.5360 185.9000 0008126 308.1412  51.9106 15.49282104108321
MO-122
1 60209U 24125G   26042.52887918  .00047319  00000-0  80382-3 0  9991
2 60209  97.2485 258.1375 0012533 328.3804  31.6694 15.51234794 90017
GRBBeta
1 60237U 24128C   26042.20824290  .00005364  00000-0  37423-3 0  9996
2 60237  61.9908 297.9044 0053717 108.8183 251.8746 15.05477067 87291
Curium One
1 60242U 24128H   26042.27384315  .00010589  00000-0  63516-3 0  9995
2 60242  61.9795 291.0175 0053471 105.7683 254.9318 15.10235705 87420
ROBUSTA-3A
1 60243U 24128J   26042.10630655  .00009577  00000-0  58658-3 0  9995
2 60243  61.9872 293.4220 0054057 103.2182 257.4951 15.09545682 87373
CatSat
1 60246U 24125J   26042.56194624  .00048724  00000-0  97427-3 0  9990
2 60246  97.2254 254.5053 0028484 287.3790  72.4345 15.46192686 87902
HYPERVIEW-1G (RS66S)
1 61772U 24199AP  26042.64924054  .00057325  00000-0  86396-3 0  9993
2 61772  97.3141 278.1041 0010222  28.1205 332.0599 15.54551533115058
AO-123
1 61781U 24199AY  26042.58479728  .00012009  00000-0  37176-3 0  9991
2 61781  97.3200 272.4151 0015525  43.7149 316.5320 15.33496024114669
HADES-R (SO-124)
1 62690U 25009CK  26032.99082617  .05625566  23964-5  28010-2 0  9991
2 62690  97.3531 123.7793 0009683 299.0009  61.0309 16.20765875 58841
HYDRA-T
1 62692U 25009CM  26028.19742799  .10589489  24473-5  20739-2 0  9999
2 62692  97.3569 119.0624 0010828 297.3030  62.7162 16.31546071 58115
JINJUSat 1B
1 63210U 25052A   26042.62783193  .00018646  00000-0  66027-3 0  9998
2 63210  97.4160 299.4962 0004106 140.8269 219.3269 15.29167921 50889
NUSHSAT 1
1 63211U 25052B   26042.63836887  .00022495  00000-0  75971-3 0  9994
2 63211  97.4144 299.7298 0003871 142.0950 218.0564 15.30673558 50903
TEVEL2-4
1 63213U 25052D   26042.60443477  .00021043  00000-0  73060-3 0  9997
2 63213  97.4060 299.1129 0002760 149.3507 210.7895 15.29791625 50880
TEVEL2-5
1 63214U 25052E   26042.61345937  .00020819  00000-0  72525-3 0  9996
2 63214  97.4061 299.0993 0002759 149.2746 210.8656 15.29684914 50880
TEVEL2-6
1 63215U 25052F   26042.49173315  .00022611  00000-0  78837-3 0  9996
2 63215  97.4060 298.9646 0002749 150.8046 209.3349 15.29638990 50866
TEVEL2-1
1 63217U 25052H   26041.63243174  .00018698  00000-0  66132-3 0  9999
2 63217  97.4036 297.8670 0002110 166.9759 193.1536 15.29212799 50725
TEVEL2-3
1 63218U 25052J   26042.48122589  .00021914  00000-0  77268-3 0  9997
2 63218  97.4039 298.7209 0002187 165.4329 194.6975 15.29280609 50850
TEVEL2-2
1 63219U 25052K   26042.61463469  .00019856  00000-0  70111-3 0  9990
2 63219  97.4038 298.8448 0002179 165.7240 194.4062 15.29253945 50872
TEVEL2-9
1 63237U 25052AD  26042.63999849  .00019110  00000-0  70918-3 0  9996
2 63237  97.4100 298.4834 0005062 214.0281 146.0634 15.27617720 50831
TEVEL2-7
1 63238U 25052AE  26041.67810500  .00016894  00000-0  63191-3 0  9997
2 63238  97.4102 297.4876 0005102 219.0067 141.0805 15.27384236 50682
TEVEL2-8
1 63239U 25052AF  26042.47089131  .00020210  00000-0  75491-3 0  9998
2 63239  97.4100 298.2573 0005153 215.8811 144.2083 15.27391125 50803
HYDRA-W
1 63490U 25052BL  26042.18097307  .00156180  00000-0  23567-2 0  9991
2 63490  97.3994 302.3183 0004808 170.3771 189.7576 15.54195202 51060
HADES-ICM (SO-125)
1 63492U 25052BN  26042.47712036  .00118347  00000-0  20652-2 0  9993
2 63492  97.4002 302.1053 0004814 181.2824 178.8416 15.50263175 51078
Dragonfly
1 65729U 98067XH  26031.05194254  .08662331  12285-4  96629-3 0  9997
2 65729  51.6000 237.6139 0006569 265.0285  94.9990 16.36242872 20999
RSP-03
1 65732U 98067XL  26042.27709078  .01265100  98901-3  14938-2 0  9999
2 65732  51.6134 182.1263 0008894 318.6316  41.4023 16.08044301 22741
BOTAN
1 65942U 98067XP  26042.61329818  .00413748  00000-0  15201-2 0  9996
2 65942  51.6169 187.4637 0007161 305.3332  54.7002 15.86621128 19442
CEVROSAT1
1 66309U 25248S   26042.12671079  .00004293  00000-0  21480-3 0  9998
2 66309  45.4044  76.9088 0002015  32.5533 327.5477 15.18959126 15338
SPIRONE
1 66657U 25274H   26041.33921991  .00003110  00000-0  30492-3 0  9996
2 66657  97.7417 332.5508 0013990  77.7672 282.5113 14.92886714 11296
K-HERO
1 66660U 25274L   26042.58723708  .00002347  00000-0  22864-3 0  9999
2 66660  97.7427 333.8430 0015788  77.6410 282.6576 14.93365720 11480
SNUGLITE-III DURI
1 66661U 25274M   26042.24574214  .00002150  00000-0  20930-3 0  9993
2 66661  97.7428 333.5186 0016442  79.5904 280.7168 14.93467322 11436
SilverSat
1 66909U 98067XV  26042.44477216  .00153545  00000-0  15839-2 0  9990
2 66909  51.6259 198.4045 0002456 272.0234  88.0479 15.63779460 11071
SAKHACUBE-CHOLBON
1 67290U 25313AU  26042.59168033  .00011916  00000-0  51972-3 0  9992
2 67290  97.4060 119.3682 0011044  80.4646 279.7838 15.22259140  6854
QMR-KWT
1 67291U 25313AV  26042.58754588  .00016740  00000-0  72112-3 0  9997
2 67291  97.4059 119.3735 0010678  79.9726 280.2715 15.22605432  6856
IO-86
1 40931U          25360.30710720  .00000000  00000-0  12800-3 0    00
2 40931   6.0006 332.5373 0012733 338.8432   8.1437 14.79075515    01
